Theta_e
323 330 334 334 335 333 333 333 331 331 331 330 331 329 330 333 337 340 332 333 333 332 329 334 336 333 329 328 321 311 319 322 323 328 329 328 324 321 320 326 326 325 325 325 324 321 319 316 317
322 326 333 333 336 333 333 329 331 330 331 330 329 329 330 333 335 332 332 332 331 330 331 332 335 335 332 331 322 312 316 328 330 329 327 327 326 323 321 324 324 322 326 326 321 320 321 320 318
322 329 331 335 334 334 331 330 330 332 331 330 330 331 334 334 334 332 330 332 329 327 333 332 334 334 333 333 326 311 317 328 328 324 326 325 325 325 324 325 324 322 326 326 320 319 320 321 321
327 327 328 333 334 329 328 328 330 332 332 332 332 332 333 334 332 330 330 331 327 329 335 331 331 333 333 334 325 311 321 328 329 328 323 324 326 326 324 319 321 326 327 323 320 319 319 318 320
325 326 328 328 328 327 327 328 329 330 332 333 333 334 333 332 330 328 331 330 326 330 333 332 328 328 332 334 320 314 324 328 325 319 321 318 326 325 322 319 323 326 326 322 320 320 319 318 318
323 323 324 327 327 326 326 328 328 328 330 333 334 334 334 331 328 328 328 327 327 328 331 332 326 331 333 333 315 315 323 325 320 315 312 315 320 319 319 319 321 325 325 323 321 320 319 317 318
324 324 324 322 322 323 326 327 327 327 328 330 334 333 333 331 328 327 326 328 329 330 329 328 327 335 334 332 312 319 326 328 323 314 316 323 321 324 317 319 322 324 324 323 321 320 318 315 318
322 321 325 323 321 321 322 325 326 326 327 332 334 334 333 331 328 328 329 330 333 333 329 322 333 335 334 325 312 325 328 328 321 315 319 320 323 318 317 322 322 322 322 322 321 319 317 316 316
322 323 323 322 323 323 322 323 324 325 325 328 334 334 332 332 330 330 330 330 333 333 327 326 335 334 333 316 316 328 329 328 324 316 312 314 316 315 318 322 323 320 321 321 321 319 318 317 315
323 323 324 322 321 321 322 323 323 324 324 325 331 333 332 331 330 331 331 334 334 333 334 334 335 333 331 313 322 327 329 328 327 319 311 315 315 319 323 324 322 319 320 321 322 320 319 317 316
321 322 319 318 319 321 322 322 323 322 323 325 326 333 332 331 331 332 333 335 335 335 334 334 333 332 327 316 323 327 328 327 327 320 314 323 323 322 322 324 322 320 319 318 320 320 319 318 317
319 320 320 320 318 322 320 320 320 320 321 325 323 333 332 332 330 333 330 332 333 335 334 333 332 331 328 326 324 326 328 328 325 317 318 324 323 322 321 320 323 321 318 316 314 318 319 319 317
317 318 319 319 321 322 323 321 320 320 321 322 323 323 331 332 331 331 332 332 331 333 335 333 333 330 330 330 326 326 328 327 326 322 317 323 322 320 322 320 321 320 321 319 318 317 318 320 318
313 314 315 317 321 321 322 321 321 322 320 321 322 323 326 331 332 331 332 331 332 331 333 332 332 330 330 330 326 327 327 327 327 324 318 320 320 323 322 323 320 319 323 321 317 315 315 314 314
309 310 311 313 316 319 320 320 320 321 321 321 321 322 325 326 331 332 331 331 331 331 331 332 331 329 328 328 327 328 326 326 327 324 319 319 323 322 322 322 321 318 321 321 318 316 315 314 313
307 309 309 309 309 312 316 316 315 317 318 319 321 322 325 325 328 330 331 331 331 331 331 330 330 329 328 327 326 326 327 326 325 324 320 317 323 322 322 323 323 323 322 319 316 315 315 314 313
308 307 310 310 311 310 312 315 315 315 315 316 320 320 322 324 325 326 326 331 331 330 331 330 330 329 328 326 326 325 325 325 325 323 320 313 319 324 324 324 323 325 320 318 315 314 314 312 312
312 310 310 309 309 307 307 310 313 313 313 314 317 318 320 321 324 324 325 326 327 330 330 330 329 329 328 327 326 325 324 325 324 323 319 314 313 325 324 325 324 324 322 319 316 313 313 313 310
310 310 309 308 310 310 308 308 307 308 309 312 311 314 315 318 319 324 324 324 325 330 330 330 329 328 329 328 326 325 323 324 323 319 318 315 312 320 324 324 324 325 319 319 317 314 313 312 310
309 309 310 310 310 308 308 308 308 308 308 308 310 315 317 318 318 320 325 325 326 326 329 329 329 329 328 327 328 325 324 322 319 317 317 317 314 316 320 326 322 325 320 320 320 316 314 314 312
310 310 310 310 310 308 308 308 309 309 308 308 309 309 314 317 316 319 323 325 326 326 326 329 329 329 329 327 326 327 325 323 322 319 319 319 317 315 319 325 324 326 320 320 320 320 318 314 313
310 309 308 309 309 310 308 309 309 309 309 308 308 309 309 309 312 315 318 325 325 325 325 326 329 329 329 328 327 326 326 325 323 321 318 316 319 317 318 319 325 325 321 320 320 320 321 320 315
310 308 309 309 310 310 309 307 308 309 309 309 309 310 309 309 309 310 311 316 325 325 325 326 328 329 328 328 327 326 325 327 325 324 322 319 318 319 317 315 316 319 319 321 321 320 321 322 322
309 309 309 309 309 310 308 309 309 309 308 307 308 309 308 309 309 309 309 310 315 326 326 327 328 328 328 328 328 329 326 326 326 325 324 323 320 318 319 317 314 314 316 318 319 320 321 321 322
309 309 304 310 308 303 309 309 308 308 308 307 307 309 309 309 308 308 308 309 311 319 325 325 328 329 328 328 328 328 329 326 325 326 325 324 323 322 318 319 317 315 313 315 319 319 319 321 322
311 309 306 309 310 308 308 309 308 309 309 309 308 309 309 309 311 311 309 308 309 313 319 325 324 327 328 329 328 326 328 328 326 327 325 325 324 324 324 321 317 318 316 314 315 317 318 319 321
309 311 310 311 305 309 307 307 308 308 307 306 305 306 309 309 310 311 313 313 313 314 322 322 323 325 326 328 328 326 328 328 328 326 325 326 326 326 325 325 324 318 317 317 316 315 314 316 319
308 308 310 307 304 306 306 308 310 306 305 304 303 304 305 306 308 309 312 316 318 318 320 325 322 323 325 327 326 327 325 327 328 328 328 326 328 327 327 326 326 324 321 318 318 317 316 315 315
309 309 309 309 310 310 308 306 306 304 303 303 302 302 303 304 305 306 309 311 315 319 322 325 324 324 327 327 327 325 324 325 327 327 328 329 328 328 327 327 327 326 325 323 319 320 320 318 316
308 311 309 310 311 308 309 306 303 303 302 300 299 300 300 301 302 303 303 307 312 317 322 324 325 327 328 327 326 326 325 325 325 326 329 329 328 329 327 326 327 327 326 325 324 322 322 321 321
Wind_Speed
9 7 9 8 3 4 9 12 4 3 1 8 8 5 7 17 6 4 21 15 23 24 28 24 21 17 16 15 11 12 17 16 15 16 17 16 13 15 15 19 15 15 17 15 15 18 17 16 18
8 4 6 7 4 8 8 14 3 3 11 8 4 4 3 5 7 15 22 19 21 26 28 26 23 19 15 14 11 12 15 17 16 16 16 15 12 13 17 15 16 15 15 16 15 18 19 19 19
6 4 5 3 6 10 10 5 4 11 9 6 3 2 6 5 7 15 13 26 25 24 28 27 24 20 17 13 11 12 17 18 16 14 15 17 14 11 16 14 14 17 15 15 16 18 19 20 21
4 7 8 6 13 14 15 11 9 9 5 4 2 7 7 10 8 10 26 27 24 22 23 27 24 21 18 14 12 12 18 18 15 16 14 15 14 13 11 11 13 17 15 14 16 16 17 18 20
6 7 7 9 15 19 14 9 6 6 7 10 5 5 6 9 9 12 28 27 25 24 22 25 24 22 19 15 13 13 17 17 13 12 14 15 15 12 9 16 16 14 15 14 15 15 16 16 17
10 9 6 11 15 16 17 9 12 6 12 9 7 3 6 7 13 24 25 24 22 25 24 25 24 22 19 16 13 15 18 14 9 10 13 15 12 11 13 15 16 14 13 14 13 12 14 14 16
12 7 10 12 13 13 10 11 8 11 9 6 7 4 8 13 18 24 23 23 23 23 24 28 24 23 19 16 14 16 16 13 8 8 14 14 13 13 13 15 14 13 13 13 12 10 12 13 17
16 5 14 12 11 13 11 4 9 7 4 8 4 6 5 19 23 26 29 32 28 24 20 30 25 25 20 16 17 19 17 13 10 8 12 15 14 12 14 14 12 11 11 11 10 9 12 13 15
13 8 10 15 13 9 14 3 3 1 7 5 2 1 6 19 25 28 30 29 27 23 21 28 27 26 22 19 21 20 19 16 11 9 10 14 14 14 14 13 12 11 10 10 9 9 10 10 13
10 9 10 12 10 10 9 7 10 2 6 10 5 3 13 17 25 24 27 29 28 28 28 29 27 26 22 21 25 22 20 18 14 10 12 12 14 14 13 13 11 11 11 10 10 8 9 8 11
12 12 9 14 12 8 14 15 6 7 4 4 9 9 17 18 24 21 21 27 27 27 30 29 28 25 23 23 27 25 22 19 15 13 15 13 16 15 12 15 15 11 10 10 10 10 10 8 7
15 18 21 22 22 9 4 12 12 15 16 6 1 7 11 18 25 22 20 23 28 27 27 28 28 23 20 22 28 25 24 22 18 15 19 19 17 15 13 15 14 12 11 9 9 10 11 10 8
11 14 20 17 12 5 9 14 11 19 18 9 8 4 10 14 21 21 16 21 22 30 26 26 25 27 25 24 24 24 27 23 20 17 21 23 18 18 12 12 16 15 12 10 10 10 11 11 10
12 15 15 15 6 4 9 14 19 14 19 25 19 7 9 15 22 24 21 25 25 30 31 27 27 27 30 25 25 23 25 25 22 20 22 22 18 18 15 12 11 14 14 13 11 10 10 10 10
9 9 12 14 12 9 7 15 17 26 25 26 21 21 14 15 19 25 24 25 26 26 33 33 26 28 29 29 27 22 21 27 25 24 22 23 21 22 20 15 14 15 15 15 12 12 11 10 10
3 4 3 9 15 14 15 13 12 25 31 28 28 26 20 20 20 22 23 26 27 28 30 33 34 28 30 29 29 30 28 28 29 27 23 24 24 21 20 20 19 18 16 15 14 13 12 11 10
5 4 6 7 6 4 14 5 12 22 26 22 29 29 28 26 24 21 20 27 30 30 31 30 37 36 29 29 29 30 28 30 29 29 27 25 26 22 23 22 21 19 17 16 14 14 13 12 13
7 4 5 4 3 6 10 11 12 21 21 19 18 19 22 24 29 27 23 23 24 31 33 32 32 40 37 30 29 30 30 30 30 31 29 26 29 27 25 23 21 20 19 17 16 15 14 13 14
9 9 9 11 12 12 7 11 11 16 20 20 25 23 24 22 25 27 29 24 23 31 34 34 33 35 41 41 35 31 33 32 32 31 30 29 29 32 26 25 25 23 22 20 17 17 17 16 16
6 8 10 11 4 7 11 17 14 15 23 27 21 22 23 24 23 23 26 27 27 26 35 35 37 35 36 43 42 36 34 34 33 32 32 31 29 32 31 29 28 27 24 22 20 21 21 19 18
5 5 7 11 12 9 15 14 12 12 30 29 26 26 21 23 22 19 18 26 26 27 29 37 38 38 31 33 41 40 35 34 34 36 35 34 32 31 34 31 30 30 26 26 24 25 23 23 20
6 6 7 7 4 4 11 6 7 8 5 12 28 27 29 25 27 28 24 25 30 30 28 35 39 37 34 31 32 44 41 41 42 40 38 39 36 35 35 34 34 34 31 30 28 26 25 25 24
2 8 8 8 7 7 4 3 6 5 4 2 5 11 30 31 30 30 30 29 30 30 29 34 41 41 39 36 35 36 44 42 41 39 40 40 39 39 39 37 37 39 37 34 33 31 30 28 28
5 4 9 6 2 3 9 6 2 1 7 14 19 19 20 17 17 26 25 30 30 31 27 31 36 42 42 40 36 37 41 44 37 40 40 41 42 41 42 41 40 40 40 39 38 36 33 32 31
1 2 3 1 2 5 1 5 8 15 14 8 12 19 20 20 21 22 20 25 28 30 33 31 34 41 39 40 37 35 39 38 44 40 41 42 43 42 43 45 45 43 43 42 42 42 39 37 37
2 1 1 4 2 3 8 5 4 9 19 25 26 27 26 23 23 24 27 27 25 36 37 38 37 39 39 40 37 34 32 35 41 44 42 43 44 43 42 45 47 46 45 44 45 45 44 43 41
2 1 3 3 4 1 4 6 3 13 15 22 27 27 25 21 22 23 24 24 23 23 27 41 38 40 40 39 38 32 31 32 42 41 41 39 40 42 41 42 45 47 48 48 47 47 48 48 46
2 4 1 1 3 4 5 5 3 16 18 16 19 24 26 26 21 21 18 19 20 21 13 34 35 37 39 38 36 32 26 28 37 44 42 33 41 44 44 43 42 42 45 48 49 49 48 50 48
1 2 4 3 3 2 4 3 5 10 11 14 15 20 23 23 21 17 17 20 20 15 11 30 31 32 34 37 34 31 39 29 28 34 41 45 40 46 45 45 44 43 42 44 48 50 50 52 49
4 3 5 3 2 2 2 3 6 8 10 14 16 24 23 20 20 16 13 8 8 2 9 18 24 25 28 29 34 32 31 27 25 30 36 40 45 45 44 44 44 43 43 43 45 48 51 53 52
Wind_Direction
300 358 320 300 252 216 261 251 228 3 39 50 10 32 20 42 9 110 139 155 174 171 167 162 162 157 153 149 135 134 134 132 125 122 116 112 97 92 95 106 105 103 102 98 92 91 94 97 111
293 334 299 275 244 257 248 237 186 236 91 92 56 338 284 85 67 134 163 157 176 171 165 165 163 163 153 151 141 141 139 132 130 125 122 119 110 99 105 111 106 109 110 105 97 96 95 96 102
289 303 276 228 233 248 263 16 354 96 104 101 160 7 4 71 112 139 152 161 168 169 165 165 167 166 158 157 150 146 144 137 132 126 123 128 123 114 108 126 124 124 114 111 97 98 98 98 102
270 236 255 248 251 233 258 280 357 93 88 129 290 112 94 87 132 179 152 155 159 165 172 169 170 168 166 164 157 150 144 138 144 135 131 124 122 129 124 122 119 120 124 113 99 98 99 101 108
242 264 233 231 238 269 279 302 11 316 172 170 170 147 100 129 160 160 147 155 159 157 181 178 173 174 171 167 159 154 149 145 153 137 133 138 138 145 126 129 128 126 128 113 104 100 97 102 110
242 224 241 233 242 234 248 241 306 285 298 134 158 182 118 157 150 143 152 150 160 167 181 183 176 174 172 169 165 160 151 148 152 143 132 139 140 131 126 133 136 132 132 121 110 102 97 103 112
248 239 236 244 255 261 237 203 228 289 276 264 179 187 131 146 154 151 149 156 158 184 188 182 176 177 175 171 168 162 156 152 148 138 131 133 131 134 131 131 136 139 130 128 119 108 99 103 115
230 257 260 241 253 270 284 127 194 283 332 355 78 52 147 165 158 155 167 161 164 186 189 177 177 179 177 173 171 164 167 161 150 143 145 147 145 145 141 138 143 144 137 133 125 108 110 104 115
226 241 237 246 249 251 273 206 264 171 282 309 69 91 90 166 162 178 179 175 174 178 182 173 181 183 180 177 172 170 174 173 165 158 159 156 152 147 148 147 156 152 147 143 135 123 121 112 114
220 217 247 240 264 311 283 251 229 156 315 254 216 238 153 165 176 190 172 173 178 181 179 182 185 188 184 181 174 178 183 183 184 174 161 151 153 153 162 163 167 160 152 150 152 146 139 131 124
223 242 239 270 298 345 338 323 337 310 241 53 55 137 169 173 180 199 179 180 178 182 184 186 186 187 185 186 178 184 185 193 196 183 164 162 169 172 175 176 172 163 157 162 165 163 152 152 157
259 228 246 275 290 334 275 293 293 279 266 179 150 122 179 183 185 199 191 189 191 190 193 193 192 186 185 197 184 189 192 195 195 184 166 183 192 192 184 186 180 171 164 161 162 171 179 181 177
258 255 266 270 293 270 283 276 278 286 271 243 222 215 190 195 194 200 204 201 204 192 192 191 183 189 184 199 198 194 197 196 198 205 179 193 195 185 188 195 183 182 165 165 176 197 195 191 195
357 319 308 303 271 270 275 266 261 260 259 271 262 232 212 208 200 196 199 194 213 203 194 189 196 194 190 199 197 202 207 195 200 215 194 195 189 175 194 192 194 190 173 172 195 201 195 203 207
310 297 299 283 264 249 265 254 256 256 261 268 254 246 216 218 209 208 204 204 205 210 210 198 193 203 200 203 192 204 209 200 206 215 205 195 190 188 190 194 196 197 182 180 189 198 208 214 215
254 238 274 240 233 243 222 253 274 251 239 244 254 253 214 215 211 219 215 209 204 214 217 213 203 200 202 205 200 198 203 208 214 214 211 199 194 196 188 191 196 199 193 190 200 202 210 215 214
186 286 221 266 233 268 202 263 255 260 271 256 234 240 241 238 222 223 218 214 208 213 220 217 211 203 198 205 206 204 207 213 216 215 214 207 195 198 195 192 200 208 205 206 206 200 211 213 210
348 281 282 239 36 10 319 287 273 291 291 293 261 256 246 241 224 227 226 224 212 209 225 223 219 214 205 200 207 214 207 215 217 217 219 215 204 194 202 204 209 213 211 212 212 207 206 213 218
328 307 292 295 310 311 266 266 266 276 287 269 265 270 267 261 255 233 224 223 226 210 220 224 221 218 214 209 204 215 208 213 219 221 220 221 213 204 204 209 215 216 217 217 213 210 208 211 215
310 299 292 288 288 331 294 281 271 255 250 256 262 250 246 261 260 251 216 218 225 225 222 226 227 223 219 217 217 216 218 219 224 225 223 223 220 214 212 211 216 216 218 219 217 217 215 221 224
298 269 276 280 314 293 273 278 248 249 238 242 252 259 258 256 270 257 232 219 225 231 225 226 229 224 226 227 220 221 225 225 226 226 225 222 222 221 223 212 215 219 224 224 226 225 227 229 228
305 15 345 324 333 279 18 294 300 307 283 208 229 239 248 254 256 262 260 232 227 236 237 221 226 228 225 225 230 223 217 220 227 228 228 227 223 224 225 224 218 227 229 229 231 233 234 233 235
17 6 317 303 291 319 263 239 269 243 285 308 306 257 232 240 245 256 262 264 240 239 243 229 219 226 227 223 238 233 225 223 229 231 232 230 227 226 230 230 229 230 233 234 236 236 235 237 238
346 304 275 265 293 257 220 201 283 329 356 338 322 330 330 314 261 253 252 253 258 238 237 239 223 220 227 227 228 236 234 227 225 231 233 232 232 230 233 234 234 237 237 237 239 240 241 242 245
148 337 318 201 179 226 32 190 246 297 317 5 2 352 337 336 318 311 298 267 260 246 234 236 232 221 225 231 228 232 240 234 226 228 235 232 236 236 236 236 236 237 241 240 241 244 245 244 244
265 250 317 305 343 301 318 257 248 63 36 6 358 346 338 334 330 318 303 294 284 246 239 235 233 232 225 232 233 236 239 236 230 231 237 239 245 250 249 243 243 243 244 243 243 246 249 249 247
359 277 352 300 236 292 236 258 310 20 7 356 342 334 327 328 326 315 299 304 290 281 246 233 232 232 235 231 233 238 241 237 228 234 235 241 250 253 253 252 249 248 247 247 245 245 250 251 250
281 338 284 159 305 283 281 296 306 353 344 347 341 335 333 332 326 318 301 288 282 277 275 235 238 234 232 234 231 229 252 249 244 234 238 248 245 252 252 253 254 252 251 250 248 248 251 253 254
124 225 217 299 263 276 308 281 14 340 339 339 333 331 327 329 333 319 299 276 281 287 268 223 226 236 235 234 232 231 233 248 253 250 248 249 250 247 248 255 256 255 254 254 252 251 252 253 256
294 304 271 248 213 245 307 283 8 347 330 321 336 342 334 331 334 341 338 291 266 254 168 189 209 218 226 238 237 235 239 246 259 253 250 253 250 247 250 251 253 260 257 257 255 254 253 253 255